TimeMDT,TemperatureF,Dew PointF,Humidity,Sea Level PressureIn,VisibilityMPH,Wind Direction,Wind SpeedMPH,Gust SpeedMPH,PrecipitationIn,Events,Conditions,WindDirDegrees,DateUTC
12:53 AM,21.9,19.0,89,30.19,-9999.0,SSW,3.5,-,N/A,,Unknown,210,2013-04-01 06:53:00
1:53 AM,23.0,21.0,92,30.17,10.0,SSE,6.9,-,N/A,,Unknown,150,2013-04-01 07:53:00
2:53 AM,25.0,21.9,88,30.17,10.0,SSW,5.8,-,N/A,,Clear,200,2013-04-01 08:53:00
3:53 AM,23.0,21.0,92,30.17,10.0,SSE,3.5,-,N/A,,Mostly Cloudy,160,2013-04-01 09:53:00
4:53 AM,26.1,23.0,88,30.16,10.0,South,10.4,-,N/A,,Clear,170,2013-04-01 10:53:00
5:53 AM,26.1,21.9,84,30.16,10.0,SSE,5.8,-,N/A,,Scattered Clouds,160,2013-04-01 11:53:00
6:53 AM,27.0,21.9,81,30.18,10.0,South,10.4,-,N/A,,Clear,170,2013-04-01 12:53:00
7:53 AM,32.0,25.0,75,30.19,10.0,SSE,4.6,-,N/A,,Clear,160,2013-04-01 13:53:00
8:53 AM,39.9,26.1,58,30.17,10.0,Variable,5.8,-,N/A,,Clear,0,2013-04-01 14:53:00
9:53 AM,45.0,25.0,46,30.15,10.0,West,8.1,-,N/A,,Clear,270,2013-04-01 15:53:00
10:53 AM,48.0,21.9,36,30.16,10.0,NNW,6.9,18.4,N/A,,Clear,330,2013-04-01 16:53:00
11:53 AM,50.0,19.9,31,30.16,10.0,North,9.2,-,N/A,,Clear,360,2013-04-01 17:53:00
12:53 PM,52.0,18.0,26,30.15,10.0,North,11.5,19.6,N/A,,Clear,360,2013-04-01 18:53:00
1:53 PM,51.1,17.1,26,30.15,10.0,NNW,4.6,16.1,N/A,,Clear,340,2013-04-01 19:53:00
2:53 PM,52.0,15.1,23,30.13,10.0,NW,8.1,19.6,N/A,,Unknown,320,2013-04-01 20:53:00
3:53 PM,53.1,12.9,20,30.12,10.0,NNW,10.4,-,N/A,,Clear,340,2013-04-01 21:53:00
4:53 PM,53.1,15.1,22,30.11,10.0,NE,10.4,18.4,N/A,,Clear,40,2013-04-01 22:53:00
5:53 PM,51.1,19.0,28,30.12,10.0,NE,8.1,-,N/A,,Clear,50,2013-04-01 23:53:00
6:53 PM,48.0,19.0,32,30.12,10.0,NE,11.5,-,N/A,,Clear,40,2013-04-02 00:53:00
7:53 PM,39.9,19.0,43,30.14,10.0,NE,8.1,-,N/A,,Clear,50,2013-04-02 01:53:00
8:53 PM,37.9,19.9,48,30.14,10.0,Calm,Calm,-,N/A,,Clear,0,2013-04-02 02:53:00
9:53 PM,25.0,17.1,72,30.17,10.0,Calm,Calm,-,N/A,,Clear,0,2013-04-02 03:53:00
10:53 PM,25.0,17.1,72,30.15,10.0,WSW,3.5,-,N/A,,Clear,250,2013-04-02 04:53:00
11:53 PM,21.9,16.0,78,30.15,10.0,South,5.8,-,N/A,,Unknown,180,2013-04-02 05:53:00